Flag for China Weather past 2 weeks in Tsingtao, Shandong, China

Now
75 °F

Fog.


Feels Like: 75 °F
Forecast: 66 / 86 °F
Wind: 6 mph from Southeast

Location: Qingdao Airport

Current Time: Aug 20, 2014 at 7:51:08 PM

Latest Report: Aug 20, 2014 at 7:00 PM


Visibility: 2 mi

Pressure: 29.80 "Hg

Humidity: 83%

Dew point: 70 °F

Location of TsingtaoLocation

Historic Weather in Tsingtao — Graph

°F

Tsingtao temperature yesterday

Maximum temperature yesterday: 88 °F (at 2:00 PM)
Minimum temperature yesterday: 70 °F (at 2:00 AM)
Average temperature yesterday: 77 °F

Past Weeks' High & Low Weather Summary

 TemperatureHumidityPressure
High90 °F (Aug 11, 2:00 PM)94% (Aug 6, 3:00 AM)29.89 "Hg (Aug 6, 3:00 AM)
Low66 °F (Aug 8, 6:00 AM)35% (Aug 12, 11:00 AM)29.59 "Hg (Aug 10, 2:00 PM)
Average77 °F72%29.76 "Hg
* Reported Aug 5 6:00 PM — Aug 20 6:00 PM, Tsingtao, Weather by CustomWeather, © 2014

Note: Actual official high and low records may vary slightly from our data, if they occured in-between our weather recording intervals... More about our weather records

Advertising

Tsingtao weather history for previous 24 hours

 ConditionsComfort  
Time TempWeatherWind HumidityBarometerVisibility
6:00 PM
Aug 20
79 °FFog.8 mph74%29.80 "Hg3 mi
5:00 PM82 °FClear.8 mph62%29.80 "Hg4 mi
4:00 PM82 °FPassing clouds.6 mph62%29.80 "Hg2 mi
3:00 PM82 °FPassing clouds.3 mph62%29.80 "Hg2 mi
2:00 PM82 °FPassing clouds.6 mph62%29.83 "Hg2 mi
1:00 PM82 °FClear.6 mph62%29.83 "Hg3 mi
12:00 PM84 °FClear.3 mph51%29.86 "Hg4 mi
11:00 AM84 °FClear.3 mph58%29.89 "Hg4 mi
10:00 AM82 °FClear.1 mph66%29.89 "Hg3 mi
9:00 AM79 °FFog.1 mph70%29.89 "Hg2 mi
8:00 AM75 °FFog.1 mph83%29.89 "Hg2 mi
7:00 AM73 °FFog.1 mph89%29.89 "Hg2 mi
6:00 AM72 °FFog.1 mph88%29.86 "Hg2 mi
5:00 AM72 °FFog.No wind88%29.86 "Hg2 mi
4:00 AM72 °FFog.No wind88%29.86 "Hg3 mi
3:00 AM72 °FFog.1 mph88%29.86 "Hg3 mi
2:00 AM72 °FFog.No wind88%29.86 "Hg3 mi
1:00 AM73 °FClear.1 mph83%29.86 "Hg4 mi
12:00 AM73 °FClear.No wind83%29.86 "Hg4 mi
11:00 PM
Aug 19
73 °FClear.1 mph83%29.86 "Hg4 mi
10:00 PM75 °FClear.No wind69%29.89 "Hg10 mi
9:00 PM75 °FClear.6 mph69%29.89 "Hg10 mi
8:00 PM77 °FPassing clouds.1 mph65%29.89 "Hg4 mi
7:00 PM77 °FPassing clouds.6 mph65%29.86 "Hg4 mi
Weather by CustomWeather, © 2014

See weather overviewHow to use our weather pages